TimeAKST,TemperatureF,Dew PointF,Humidity,Sea Level PressureIn,VisibilityMPH,Wind Direction,Wind SpeedMPH,Gust SpeedMPH,PrecipitationIn,Events,Conditions,WindDirDegrees,DateUTC
12:53 AM,39.9,39.0,97,29.77,10.0,WSW,4.6,-,N/A,,Clear,240,2013-01-22 09:53:00
1:53 AM,37.9,37.9,100,29.74,10.0,Calm,Calm,-,N/A,,Clear,0,2013-01-22 10:53:00
2:53 AM,39.0,37.9,96,29.73,10.0,Calm,Calm,-,N/A,,Clear,0,2013-01-22 11:53:00
3:53 AM,37.9,37.9,100,29.70,10.0,Calm,Calm,-,N/A,,Clear,0,2013-01-22 12:53:00
4:53 AM,39.0,37.9,96,29.67,10.0,NNW,5.8,-,N/A,,Overcast,330,2013-01-22 13:53:00
5:53 AM,39.0,37.9,96,29.66,10.0,WNW,9.2,-,N/A,,Overcast,300,2013-01-22 14:53:00
6:53 AM,39.9,37.9,93,29.66,10.0,WNW,3.5,-,N/A,,Mostly Cloudy,300,2013-01-22 15:53:00
7:53 AM,39.0,37.9,96,29.65,10.0,Calm,Calm,-,N/A,,Overcast,0,2013-01-22 16:53:00
8:53 AM,46.0,32.0,58,29.64,10.0,East,16.1,-,N/A,,Overcast,100,2013-01-22 17:53:00
9:53 AM,46.0,33.1,61,29.63,10.0,ESE,12.7,-,N/A,,Overcast,110,2013-01-22 18:53:00
10:53 AM,46.0,36.0,68,29.62,10.0,East,13.8,-,0.00,,Overcast,100,2013-01-22 19:53:00
11:53 AM,46.9,35.1,63,29.61,10.0,ESE,16.1,24.2,N/A,,Mostly Cloudy,110,2013-01-22 20:53:00
12:53 PM,46.0,35.1,66,29.60,10.0,ESE,15.0,-,0.00,,Overcast,120,2013-01-22 21:53:00
1:53 PM,46.9,35.1,63,29.58,10.0,East,16.1,23.0,N/A,,Overcast,100,2013-01-22 22:53:00
2:53 PM,46.0,35.1,66,29.57,10.0,ESE,15.0,-,0.00,,Overcast,120,2013-01-22 23:53:00
3:53 PM,46.9,35.1,63,29.55,10.0,East,17.3,25.3,0.00,,Mostly Cloudy,100,2013-01-23 00:53:00
4:53 PM,46.0,34.0,63,29.56,10.0,ESE,13.8,-,N/A,,Overcast,110,2013-01-23 01:53:00
5:53 PM,46.0,34.0,63,29.55,10.0,ESE,12.7,20.7,N/A,,Mostly Cloudy,110,2013-01-23 02:53:00
6:53 PM,46.0,34.0,63,29.55,10.0,ESE,16.1,21.9,N/A,,Overcast,110,2013-01-23 03:53:00
7:53 PM,46.0,34.0,63,29.54,10.0,ESE,20.7,24.2,N/A,,Mostly Cloudy,110,2013-01-23 04:53:00
8:53 PM,45.0,34.0,65,29.54,10.0,ESE,19.6,-,N/A,,Overcast,110,2013-01-23 05:53:00
9:53 PM,45.0,34.0,65,29.55,10.0,ESE,15.0,-,N/A,,Overcast,110,2013-01-23 06:53:00
10:53 PM,45.0,34.0,65,29.55,10.0,ESE,13.8,-,N/A,,Overcast,110,2013-01-23 07:53:00
11:53 PM,46.0,33.1,61,29.55,10.0,East,16.1,-,N/A,,Overcast,100,2013-01-23 08:53:00